• In Deutschland
  • Länderverzeichnis
  • Für 7 Tage
  • Wassertemperatur
  • Satellitenkarten
  • Wetterkarte
  • Widgets
  • user-avatar
    Anmelden

    Stündliche Wetter Impfondo

    Heute, 22 Juli, Sonntag

    Zeit Temperatur Niederschläge Wind Luftdruck Luftfeuchtigkeit
    00:00 +27°C° 0 mm 1 m/S 731 mmHg 65%
    01:00 +26°C° 0 mm 1 m/S 731 mmHg 68%
    02:00 +26°C° 0 mm 1 m/S 731 mmHg 70%
    03:00 +25°C° 0 mm 1 m/S 731 mmHg 73%
    04:00 +25°C° 0 mm 1 m/S 731 mmHg 76%
    05:00 +25°C° 0 mm 1 m/S 731 mmHg 75%
    06:00 +26°C° 0 mm 1 m/S 731 mmHg 74%
    07:00 +26°C° 0 mm 1 m/S 732 mmHg 73%
    08:00 +30°C° 0 mm 1 m/S 732 mmHg 62%
    09:00 +33°C° 0 mm 1 m/S 732 mmHg 52%
    10:00 +36°C° 0 mm 1 m/S 732 mmHg 41%
    11:00 +37°C° 0 mm 1 m/S 732 mmHg 36%
    12:00 +39°C° 0 mm 1 m/S 731 mmHg 32%
    13:00 +41°C° 0 mm 1 m/S 730 mmHg 27%
    14:00 +39°C° 0 mm 1 m/S 730 mmHg 31%
    15:00 +36°C° 0 mm 1 m/S 729 mmHg 35%
    16:00 +35°C° 0 mm 1 m/S 729 mmHg 39%
    17:00 +34°C° 0 mm 1 m/S 729 mmHg 43%
    18:00 +32°C° 0 mm 1 m/S 729 mmHg 46%
    19:00 +31°C° 0 mm 1 m/S 730 mmHg 49%
    20:00 +30°C° 0 mm 1 m/S 730 mmHg 52%
    21:00 +30°C° 0 mm 1 m/S 731 mmHg 54%
    22:00 +29°C° 0 mm 1 m/S 731 mmHg 56%
    23:00 +28°C° 0 mm 1 m/S 731 mmHg 59%

    Morgen, 23 Juli, Montag

    Zeit Temperatur Niederschläge Wind Luftdruck Luftfeuchtigkeit
    00:00 +28°C° 0 mm 1 m/S 731 mmHg 61%
    01:00 +28°C° 0 mm 1 m/S 731 mmHg 64%
    02:00 +27°C° 0 mm 1 m/S 731 mmHg 67%
    03:00 +27°C° 0 mm 1 m/S 731 mmHg 71%
    04:00 +26°C° 0 mm 1 m/S 731 mmHg 74%
    05:00 +27°C° 0 mm 1 m/S 731 mmHg 75%
    06:00 +27°C° 0 mm 1 m/S 731 mmHg 75%
    07:00 +27°C° 0 mm 1 m/S 731 mmHg 75%
    08:00 +29°C° 0 mm 1 m/S 732 mmHg 69%
    09:00 +30°C° 0 mm 1 m/S 732 mmHg 62%
    10:00 +32°C° 0 mm 1 m/S 733 mmHg 55%
    11:00 +33°C° 0,3 mm 1 m/S 732 mmHg 54%
    12:00 +33°C° 0,3 mm 1 m/S 732 mmHg 53%
    13:00 +34°C° 0,3 mm 1 m/S 731 mmHg 52%
    14:00 +33°C° 1,2 mm 1 m/S 731 mmHg 55%
    15:00 +33°C° 1,2 mm 1 m/S 730 mmHg 58%
    16:00 +32°C° 1,2 mm 1 m/S 730 mmHg 60%
    17:00 +31°C° 0,1 mm 1 m/S 730 mmHg 66%
    18:00 +29°C° 0,1 mm 1 m/S 730 mmHg 72%
    19:00 +26°C° 0,1 mm 0 m/S 730 mmHg 77%
    20:00 +27°C° 0,3 mm 1 m/S 731 mmHg 80%
    21:00 +26°C° 0,3 mm 1 m/S 731 mmHg 83%
    22:00 +26°C° 0,3 mm 1 m/S 732 mmHg 86%
    23:00 +25°C° 0 mm 1 m/S 732 mmHg 87%

    übermorgen, 24 Juli, Dienstag

    Zeit Temperatur Niederschläge Wind Luftdruck Luftfeuchtigkeit
    00:00 +25°C° 0 mm 1 m/S 731 mmHg 88%
    01:00 +23°C° 0 mm 0 m/S 731 mmHg 88%
    02:00 +25°C° 0 mm 1 m/S 731 mmHg 89%
    03:00 +25°C° 0 mm 1 m/S 731 mmHg 89%
    04:00 +24°C° 0 mm 1 m/S 730 mmHg 90%
    05:00 +25°C° 0 mm 1 m/S 731 mmHg 87%
    06:00 +25°C° 0 mm 2 m/S 731 mmHg 85%
    07:00 +26°C° 0 mm 2 m/S 731 mmHg 83%
    08:00 +27°C° 0 mm 2 m/S 732 mmHg 78%
    09:00 +28°C° 0 mm 2 m/S 732 mmHg 73%
    10:00 +29°C° 0 mm 2 m/S 733 mmHg 68%
    11:00 +31°C° 0 mm 2 m/S 732 mmHg 61%
    12:00 +34°C° 0 mm 2 m/S 732 mmHg 54%
    13:00 +36°C° 0 mm 2 m/S 731 mmHg 47%
    14:00 +36°C° 0 mm 2 m/S 731 mmHg 47%
    15:00 +35°C° 0 mm 1 m/S 730 mmHg 46%
    16:00 +35°C° 0 mm 1 m/S 730 mmHg 45%
    17:00 +33°C° 0,1 mm 1 m/S 730 mmHg 51%
    18:00 +31°C° 0,1 mm 1 m/S 730 mmHg 58%
    19:00 +27°C° 0,1 mm 0 m/S 731 mmHg 65%
    20:00 +28°C° 0,5 mm 1 m/S 731 mmHg 72%
    21:00 +27°C° 0,5 mm 1 m/S 732 mmHg 79%
    22:00 +25°C° 0,5 mm 1 m/S 733 mmHg 87%
    23:00 +25°C° 0,5 mm 1 m/S 732 mmHg 89%

    25 Juli, Mittwoch

    Zeit Temperatur Niederschläge Wind Luftdruck Luftfeuchtigkeit
    00:00 +25°C° 0,5 mm 1 m/S 732 mmHg 92%
    01:00 +24°C° 0,5 mm 1 m/S 732 mmHg 94%
    02:00 +24°C° 0 mm 1 m/S 731 mmHg 94%
    03:00 +24°C° 0 mm 1 m/S 731 mmHg 94%
    04:00 +24°C° 0 mm 1 m/S 731 mmHg 95%
    05:00 +24°C° 0 mm 1 m/S 731 mmHg 93%
    06:00 +25°C° 0 mm 1 m/S 732 mmHg 92%
    07:00 +25°C° 0 mm 2 m/S 732 mmHg 90%
    08:00 +27°C° 0 mm 2 m/S 732 mmHg 78%
    09:00 +30°C° 0 mm 2 m/S 732 mmHg 66%
    10:00 +32°C° 0 mm 2 m/S 733 mmHg 54%
    11:00 +35°C° 0 mm 2 m/S 732 mmHg 48%
    12:00 +37°C° 0 mm 2 m/S 731 mmHg 42%
    13:00 +38°C° 0 mm 2 m/S 731 mmHg 36%
    14:00 +37°C° 0 mm 1 m/S 730 mmHg 37%
    15:00 +36°C° 0 mm 1 m/S 730 mmHg 39%
    16:00 +35°C° 0 mm 1 m/S 729 mmHg 41%
    17:00 +33°C° 0,2 mm 1 m/S 730 mmHg 50%
    18:00 +31°C° 0,2 mm 1 m/S 730 mmHg 60%
    19:00 +28°C° 0,2 mm 1 m/S 731 mmHg 69%
    20:00 +28°C° 1,4 mm 1 m/S 731 mmHg 76%
    21:00 +27°C° 1,4 mm 1 m/S 732 mmHg 82%
    22:00 +26°C° 1,4 mm 1 m/S 732 mmHg 89%
    23:00 +26°C° 4,9 mm 1 m/S 732 mmHg 90%

    26 Juli, Donnerstag

    Zeit Temperatur Niederschläge Wind Luftdruck Luftfeuchtigkeit
    00:00 +25°C° 4,9 mm 1 m/S 732 mmHg 92%
    01:00 +25°C° 4,9 mm 1 m/S 732 mmHg 94%
    02:00 +25°C° 1,5 mm 1 m/S 732 mmHg 94%
    03:00 +25°C° 1,5 mm 1 m/S 732 mmHg 93%
    04:00 +23°C° 1,5 mm 0 m/S 732 mmHg 93%
    05:00 +25°C° 0,1 mm 1 m/S 732 mmHg 93%
    06:00 +25°C° 0,1 mm 1 m/S 732 mmHg 92%
    07:00 +25°C° 0,1 mm 1 m/S 733 mmHg 92%
    08:00 +25°C° 0 mm 1 m/S 733 mmHg 90%
    09:00 +26°C° 0 mm 1 m/S 733 mmHg 88%
    10:00 +26°C° 0 mm 2 m/S 733 mmHg 86%
    11:00 +28°C° 0 mm 2 m/S 733 mmHg 78%
    12:00 +29°C° 0 mm 2 m/S 732 mmHg 69%
    13:00 +31°C° 0 mm 2 m/S 731 mmHg 60%
    14:00 +31°C° 0 mm 1 m/S 731 mmHg 57%
    15:00 +32°C° 0 mm 1 m/S 730 mmHg 54%
    16:00 +33°C° 0 mm 1 m/S 730 mmHg 51%
    17:00 +31°C° 0,3 mm 1 m/S 730 mmHg 59%
    18:00 +29°C° 0,3 mm 1 m/S 731 mmHg 67%
    19:00 +25°C° 0,3 mm 0 m/S 731 mmHg 75%
    20:00 +24°C° 0,3 mm 0 m/S 731 mmHg 78%
    21:00 +24°C° 0,3 mm 0 m/S 732 mmHg 81%
    22:00 +23°C° 0,3 mm 0 m/S 732 mmHg 84%
    23:00 +22°C° 0,4 mm 0 m/S 732 mmHg 87%

    27 Juli, Freitag

    Zeit Temperatur Niederschläge Wind Luftdruck Luftfeuchtigkeit
    00:00 +22°C° 0,4 mm 0 m/S 732 mmHg 90%
    01:00 +23°C° 0,4 mm 1 m/S 731 mmHg 93%
    02:00 +21°C° 0,5 mm 0 m/S 731 mmHg 94%
    03:00 +21°C° 0,5 mm 0 m/S 732 mmHg 95%
    04:00 +21°C° 0,5 mm 0 m/S 732 mmHg 96%
    05:00 +23°C° 0 mm 1 m/S 732 mmHg 94%
    06:00 +24°C° 0 mm 1 m/S 733 mmHg 92%
    07:00 +24°C° 0 mm 1 m/S 733 mmHg 90%
    08:00 +26°C° 0 mm 1 m/S 733 mmHg 79%
    09:00 +28°C° 0 mm 2 m/S 733 mmHg 68%
    10:00 +31°C° 0 mm 2 m/S 734 mmHg 57%
    11:00 +32°C° 0 mm 2 m/S 733 mmHg 53%
    12:00 +34°C° 0 mm 2 m/S 732 mmHg 50%
    13:00 +35°C° 0 mm 2 m/S 732 mmHg 46%
    14:00 +34°C° 0 mm 2 m/S 731 mmHg 47%
    15:00 +34°C° 0 mm 2 m/S 731 mmHg 48%
    16:00 +34°C° 0 mm 2 m/S 730 mmHg 48%
    17:00 +31°C° 0 mm 1 m/S 730 mmHg 55%
    18:00 +29°C° 0 mm 1 m/S 731 mmHg 61%
    19:00 +27°C° 0 mm 1 m/S 731 mmHg 68%
    20:00 +27°C° 0 mm 1 m/S 732 mmHg 69%
    21:00 +26°C° 0 mm 1 m/S 732 mmHg 70%
    22:00 +26°C° 0 mm 1 m/S 733 mmHg 71%
    23:00 +26°C° 0 mm 1 m/S 732 mmHg 72%
    Mehr zeigen